Regional Weather Roundup
Issued by NWS

Home | Current Version | Previous Version | Graphics & Text | Print | Product List | Glossary On
Versions: 1 2 3 4 5 6 7 8 9 10 11 12 13 14 15 16 17 18 19 20 21 22 23 24 25 26 27 28 29 30 31 32 33 34 35 36 37 38 39 40 41 42 43 44 45 46 47 48 49 50
000
ASUS45 KCYS 050010
RWRWY

WYOMING REGIONAL WEATHER ROUNDUP
NATIONAL WEATHER SERVICE CHEYENNE WY
500 PM MST WED MAR 04 2015

NOTE:  "FAIR" INDICATES FEW OR NO CLOUDS BELOW 12,000 FEET
WITH NO SIGNIFICANT WEATHER AND/OR OBSTRUCTIONS TO VISIBILITY.

WYZ001-050100-
YELLOWSTONE NATIONAL PARK

CITY           SKY/WX    TMP DP  RH WIND       PRES   REMARKS
LK YELLOWSTONE   N/A     20  -6  31 VRB7      30.07R WCI  11
6HR MIN TEMP:   0; 6HR MAX TEMP:  21;

W YELLOWSTONE  NOT AVBL

$$
WYZ002>013-054>058-071-098>099-050100-
NORTHERN WYOMING

CITY           SKY/WX    TMP DP  RH WIND       PRES   REMARKS
JACKSON        SUNNY     19   3  49 VRB6      30.12R WCI  11
CODY           FAIR      23   9  54 SE9       30.06F WCI  13
GREYBULL       FAIR      23   3  42 SE7       30.15F WCI  15
6HR MIN TEMP:  14; 6HR MAX TEMP:  24; 6HR PCP: TRACE;

WORLAND        FAIR      23   4  44 SE7       30.14F WCI  15
6HR MIN TEMP:  13; 6HR MAX TEMP:  23;

SHERIDAN       FAIR      15   3  59 SW3       30.12S
6HR MIN TEMP:  11; 6HR MAX TEMP:  16;

BUFFALO        FAIR      18   3  52 S12       30.07S WCI   5
6HR MIN TEMP:  10; 6HR MAX TEMP:  18;

GILLETTE       FAIR      17   3  54 NW9       30.11S WCI   6
6HR MIN TEMP:  10; 6HR MAX TEMP:  18;

HULETT         FAIR      16  -4  41 W8        30.13S WCI   5
NEWCASTLE      FAIR      18  -4  38 NW14G20   30.15S WCI   4

$$
WYZ014>020-022>026-101>103-050100-
CENTRAL WYOMING

CITY           SKY/WX    TMP DP  RH WIND       PRES   REMARKS
BIG PINEY      FAIR      27  -1  30 N15       30.08R WCI  15
6HR MIN TEMP:  19; 6HR MAX TEMP:  28;

PINEDALE       FAIR      21   3  45 W17       30.07S WCI   7
DUBOIS         FAIR      21   1  42 W16G28    30.01R WCI   7
LANDER         FAIR      14   4  64 NW7       30.09R WCI   4
6HR MIN TEMP:   2; 6HR MAX TEMP:  18;

RIVERTON       FAIR      11   2  67 NE5       30.10S WCI   3
6HR MIN TEMP:   5; 6HR MAX TEMP:  13;

CASPER         FAIR      13   2  61 SW14      30.10S WCI  -2
6HR MIN TEMP:  10; 6HR MAX TEMP:  15;

DOUGLAS        FAIR      17   4  56 NW10      30.11S WCI   5
6HR MIN TEMP:   5; 6HR MAX TEMP:  18;


$$
WYZ021-027>030-104>119-050100-
SOUTHERN WYOMING

CITY           SKY/WX    TMP DP  RH WIND       PRES   REMARKS
EVANSTON       FAIR      25  12  58 W14       30.14R WCI  13
6HR MIN TEMP:  22; 6HR MAX TEMP:  28;

FORT BRIDGER   FAIR      28  13  52 NW17      30.14S WCI  16
ROCK SPRINGS   NOT AVBL
DIXON          FAIR      21   4  49 CALM      30.16S
RAWLINS        FAIR      12   2  64 W9        30.09R WCI   0
6HR MIN TEMP:   3; 6HR MAX TEMP:  13;

SARATOGA       FAIR      12   5  73 NW5       30.09S WCI   4
LARAMIE        FAIR      11  -2  56 NW10      30.01R WCI  -3
6HR MIN TEMP:   8; 6HR MAX TEMP:  13;

CHEYENNE       FAIR      18  -5  36 NW10      30.06R WCI   6
6HR MIN TEMP:  13; 6HR MAX TEMP:  20;

TORRINGTON     FAIR      23   2  40 N7        30.15R WCI  15
6HR MIN TEMP:  18; 6HR MAX TEMP:  24;

PINE BLUFFS    FAIR      23  -6  28 NW22G28   30.10S WCI   8

$$



USA.gov is the U.S. government's official web portal to all federal, state and local government web resources and services.